Time,TemperatureF,DewpointF,PressureIn,WindDirection,WindDirectionDegrees,WindSpeedMPH,WindSpeedGustMPH,Humidity,HourlyPrecipIn,Conditions,Clouds,dailyrainin,SoftwareType,DateUTC
2013-04-19 00:02:00,47.1,46.0,30.38,NE,51,1.0,8.0,96,0.00,,,0.00,Wunderground v.1.15,2013-04-19 07:02:00,
2013-04-19 00:08:00,47.1,46.0,30.38,NE,51,2.0,8.0,96,0.00,,,0.00,Wunderground v.1.15,2013-04-19 07:08:00,
2013-04-19 00:14:00,47.1,46.0,30.38,NE,51,2.0,2.0,96,0.00,,,0.00,Wunderground v.1.15,2013-04-19 07:14:00,
2013-04-19 00:19:00,47.1,46.0,30.38,NE,51,1.0,2.0,96,0.00,,,0.00,Wunderground v.1.15,2013-04-19 07:19:00,
2013-04-19 00:25:00,47.1,46.0,30.38,NE,51,0.0,1.0,96,0.00,,,0.00,Wunderground v.1.15,2013-04-19 07:25:00,
2013-04-19 00:31:00,47.1,46.0,30.38,NE,51,0.0,0.0,96,0.00,,,0.00,Wunderground v.1.15,2013-04-19 07:31:00,
2013-04-19 00:36:00,47.1,46.0,30.38,NE,51,0.0,2.0,96,0.00,,,0.00,Wunderground v.1.15,2013-04-19 07:36:00,
2013-04-19 00:42:00,47.1,46.0,30.38,NE,51,1.0,2.0,96,0.00,,,0.00,Wunderground v.1.15,2013-04-19 07:42:00,
2013-04-19 00:48:00,47.1,46.0,30.39,NW,325,3.0,6.0,96,0.00,,,0.00,Wunderground v.1.15,2013-04-19 07:48:00,
2013-04-19 00:53:00,47.2,46.1,30.39,NW,323,4.0,5.0,96,0.00,,,0.00,Wunderground v.1.15,2013-04-19 07:53:00,
2013-04-19 00:59:00,47.2,46.1,30.39,NW,323,4.0,5.0,96,0.00,,,0.00,Wunderground v.1.15,2013-04-19 07:59:00,
2013-04-19 01:04:00,47.3,46.2,30.39,NW,323,3.0,4.0,96,0.00,,,0.00,Wunderground v.1.15,2013-04-19 08:04:00,
2013-04-19 01:10:00,47.3,46.2,30.39,NW,323,2.0,4.0,96,0.00,,,0.00,Wunderground v.1.15,2013-04-19 08:10:00,
2013-04-19 01:16:00,47.3,46.5,30.39,NW,323,3.0,4.0,97,0.00,,,0.00,Wunderground v.1.15,2013-04-19 08:16:00,
2013-04-19 01:22:00,47.3,46.2,30.39,NW,323,2.0,4.0,96,0.00,,,0.00,Wunderground v.1.15,2013-04-19 08:22:00,
2013-04-19 01:28:00,47.2,46.4,30.38,NW,323,1.0,4.0,97,0.00,,,0.00,Wunderground v.1.15,2013-04-19 08:28:00,
2013-04-19 01:34:00,47.2,46.4,30.38,NW,323,1.0,4.0,97,0.00,,,0.00,Wunderground v.1.15,2013-04-19 08:34:00,
2013-04-19 01:39:00,47.2,46.4,30.39,NW,323,0.0,4.0,97,0.00,,,0.00,Wunderground v.1.15,2013-04-19 08:39:00,
2013-04-19 01:45:00,47.2,46.4,30.39,NW,323,1.0,4.0,97,0.00,,,0.00,Wunderground v.1.15,2013-04-19 08:45:00,
2013-04-19 01:50:00,47.2,46.4,30.38,NW,323,1.0,4.0,97,0.00,,,0.00,Wunderground v.1.15,2013-04-19 08:50:00,
2013-04-19 01:56:00,47.2,46.4,30.37,NW,323,0.0,4.0,97,0.00,,,0.00,Wunderground v.1.15,2013-04-19 08:56:00,
2013-04-19 02:02:00,47.2,46.4,30.37,NW,323,0.0,4.0,97,0.00,,,0.00,Wunderground v.1.15,2013-04-19 09:02:00,
2013-04-19 02:08:00,47.2,46.4,30.37,NW,323,0.0,4.0,97,0.00,,,0.00,Wunderground v.1.15,2013-04-19 09:08:00,
2013-04-19 02:13:00,47.2,46.4,30.37,NW,323,0.0,4.0,97,0.00,,,0.00,Wunderground v.1.15,2013-04-19 09:13:00,
2013-04-19 02:19:00,47.2,46.4,30.37,NW,323,1.0,4.0,97,0.00,,,0.00,Wunderground v.1.15,2013-04-19 09:19:00,
2013-04-19 02:24:00,47.2,46.4,30.37,NW,323,1.0,4.0,97,0.00,,,0.00,Wunderground v.1.15,2013-04-19 09:24:00,
2013-04-19 02:29:00,47.2,46.4,30.37,NW,322,2.0,4.0,97,0.00,,,0.00,Wunderground v.1.15,2013-04-19 09:29:00,
2013-04-19 02:34:00,47.2,46.4,30.37,NW,316,2.0,4.0,97,0.00,,,0.00,Wunderground v.1.15,2013-04-19 09:34:00,
2013-04-19 02:40:00,47.2,46.4,30.37,NW,309,2.0,2.0,97,0.00,,,0.00,Wunderground v.1.15,2013-04-19 09:40:00,
2013-04-19 02:46:00,47.1,46.3,30.36,NW,309,2.0,4.0,97,0.00,,,0.00,Wunderground v.1.15,2013-04-19 09:46:00,
2013-04-19 02:52:00,47.1,46.3,30.37,NW,309,1.0,4.0,97,0.00,,,0.00,Wunderground v.1.15,2013-04-19 09:52:00,
2013-04-19 02:58:00,47.2,46.4,30.37,NW,309,1.0,4.0,97,0.00,,,0.00,Wunderground v.1.15,2013-04-19 09:58:00,
2013-04-19 03:04:00,47.2,46.4,30.36,NW,309,1.0,4.0,97,0.00,,,0.00,Wunderground v.1.15,2013-04-19 10:04:00,
2013-04-19 03:10:00,47.2,46.4,30.37,NW,309,0.0,4.0,97,0.00,,,0.00,Wunderground v.1.15,2013-04-19 10:10:00,
2013-04-19 03:16:00,47.1,46.3,30.36,NW,309,1.0,4.0,97,0.00,,,0.00,Wunderground v.1.15,2013-04-19 10:16:00,
2013-04-19 03:22:00,47.2,46.4,30.37,NW,309,1.0,4.0,97,0.00,,,0.00,Wunderground v.1.15,2013-04-19 10:22:00,
2013-04-19 03:27:00,47.1,46.3,30.37,NW,309,1.0,4.0,97,0.00,,,0.00,Wunderground v.1.15,2013-04-19 10:27:00,
2013-04-19 03:32:00,47.1,46.3,30.37,NW,309,2.0,4.0,97,0.00,,,0.00,Wunderground v.1.15,2013-04-19 10:32:00,
2013-04-19 03:38:00,47.0,46.2,30.37,NW,309,1.0,4.0,97,0.00,,,0.00,Wunderground v.1.15,2013-04-19 10:38:00,
2013-04-19 03:44:00,47.0,46.2,30.35,NW,309,1.0,4.0,97,0.00,,,0.00,Wunderground v.1.15,2013-04-19 10:44:00,
2013-04-19 03:49:00,46.9,46.1,30.35,NW,309,0.0,4.0,97,0.00,,,0.00,Wunderground v.1.15,2013-04-19 10:49:00,
2013-04-19 03:55:00,46.9,46.1,30.35,NW,310,0.0,4.0,97,0.00,,,0.00,Wunderground v.1.15,2013-04-19 10:55:00,
2013-04-19 04:00:00,46.8,46.0,30.35,NW,309,0.0,4.0,97,0.00,,,0.00,Wunderground v.1.15,2013-04-19 11:00:00,
2013-04-19 04:06:00,46.7,45.9,30.35,NW,309,0.0,4.0,97,0.00,,,0.00,Wunderground v.1.15,2013-04-19 11:06:00,
2013-04-19 04:11:00,46.6,45.8,30.34,NW,309,0.0,4.0,97,0.00,,,0.00,Wunderground v.1.15,2013-04-19 11:11:00,
2013-04-19 04:17:00,46.5,45.7,30.34,NW,309,0.0,4.0,97,0.00,,,0.00,Wunderground v.1.15,2013-04-19 11:17:00,
2013-04-19 04:22:00,46.4,45.6,30.34,NW,309,0.0,4.0,97,0.00,,,0.00,Wunderground v.1.15,2013-04-19 11:22:00,
2013-04-19 04:28:00,46.4,45.6,30.35,NW,309,1.0,4.0,97,0.00,,,0.00,Wunderground v.1.15,2013-04-19 11:28:00,
2013-04-19 04:34:00,46.3,45.5,30.35,NW,310,1.0,4.0,97,0.00,,,0.00,Wunderground v.1.15,2013-04-19 11:34:00,
2013-04-19 04:40:00,46.3,45.5,30.35,NW,310,1.0,4.0,97,0.00,,,0.00,Wunderground v.1.15,2013-04-19 11:40:00,
2013-04-19 04:46:00,46.3,45.5,30.35,NW,309,1.0,4.0,97,0.00,,,0.00,Wunderground v.1.15,2013-04-19 11:46:00,
2013-04-19 04:51:00,46.3,45.5,30.35,SSE,164,2.0,4.0,97,0.00,,,0.00,Wunderground v.1.15,2013-04-19 11:51:00,
2013-04-19 04:56:00,46.2,45.4,30.34,SE,143,3.0,6.0,97,0.00,,,0.00,Wunderground v.1.15,2013-04-19 11:56:00,
2013-04-19 05:02:00,46.1,45.3,30.34,SE,140,4.0,8.0,97,0.00,,,0.00,Wunderground v.1.15,2013-04-19 12:02:00,
2013-04-19 05:08:00,46.0,45.2,30.33,SE,130,5.0,8.0,97,0.00,,,0.00,Wunderground v.1.15,2013-04-19 12:08:00,
2013-04-19 05:13:00,45.9,45.1,30.33,SE,139,5.0,7.0,97,0.00,,,0.00,Wunderground v.1.15,2013-04-19 12:13:00,
2013-04-19 05:19:00,45.9,45.1,30.33,SSE,148,4.0,7.0,97,0.00,,,0.00,Wunderground v.1.15,2013-04-19 12:19:00,
2013-04-19 05:25:00,45.9,45.1,30.34,SE,138,4.0,5.0,97,0.00,,,0.00,Wunderground v.1.15,2013-04-19 12:25:00,
2013-04-19 05:31:00,46.0,45.2,30.33,SSE,151,3.0,5.0,97,0.00,,,0.00,Wunderground v.1.15,2013-04-19 12:31:00,
2013-04-19 05:37:00,46.0,45.2,30.33,SE,141,4.0,5.0,97,0.00,,,0.00,Wunderground v.1.15,2013-04-19 12:37:00,
2013-04-19 05:43:00,46.1,45.3,30.33,SE,143,4.0,6.0,97,0.00,,,0.00,Wunderground v.1.15,2013-04-19 12:43:00,
2013-04-19 05:49:00,46.1,45.3,30.32,SE,140,3.0,6.0,97,0.00,,,0.00,Wunderground v.1.15,2013-04-19 12:49:00,
2013-04-19 05:55:00,46.2,45.4,30.32,SE,146,4.0,6.0,97,0.00,,,0.00,Wunderground v.1.15,2013-04-19 12:55:00,
2013-04-19 06:00:00,46.2,45.4,30.32,SSE,149,4.0,4.0,97,0.00,,,0.00,Wunderground v.1.15,2013-04-19 13:00:00,
2013-04-19 06:06:00,46.2,45.4,30.33,SE,140,4.0,5.0,97,0.00,,,0.00,Wunderground v.1.15,2013-04-19 13:06:00,
2013-04-19 06:11:00,46.3,45.5,30.32,SE,139,3.0,4.0,97,0.00,,,0.00,Wunderground v.1.15,2013-04-19 13:11:00,
2013-04-19 06:16:00,46.3,45.5,30.32,SE,138,3.0,4.0,97,0.00,,,0.00,Wunderground v.1.15,2013-04-19 13:16:00,
2013-04-19 06:22:00,46.4,45.6,30.32,SE,139,3.0,5.0,97,0.00,,,0.00,Wunderground v.1.15,2013-04-19 13:22:00,
2013-04-19 06:27:00,46.5,45.7,30.32,SE,138,3.0,5.0,97,0.00,,,0.00,Wunderground v.1.15,2013-04-19 13:27:00,
2013-04-19 06:33:00,46.5,45.7,30.32,SE,138,3.0,4.0,97,0.00,,,0.00,Wunderground v.1.15,2013-04-19 13:33:00,
2013-04-19 06:38:00,46.6,45.8,30.31,SSE,148,3.0,4.0,97,0.00,,,0.00,Wunderground v.1.15,2013-04-19 13:38:00,
2013-04-19 06:43:00,46.6,45.8,30.31,SE,139,3.0,4.0,97,0.00,,,0.01,Wunderground v.1.15,2013-04-19 13:43:00,
2013-04-19 06:48:00,46.7,45.9,30.32,SE,139,3.0,4.0,97,0.00,,,0.01,Wunderground v.1.15,2013-04-19 13:48:00,
2013-04-19 06:53:00,46.8,46.0,30.31,SSE,167,3.0,5.0,97,0.00,,,0.01,Wunderground v.1.15,2013-04-19 13:53:00,
2013-04-19 06:59:00,46.8,46.0,30.31,SSE,167,3.0,5.0,97,0.00,,,0.01,Wunderground v.1.15,2013-04-19 13:59:00,
2013-04-19 07:05:00,46.8,46.0,30.31,SSE,167,3.0,5.0,97,0.00,,,0.01,Wunderground v.1.15,2013-04-19 14:05:00,
2013-04-19 07:10:00,46.9,46.1,30.31,SSE,167,3.0,4.0,97,0.00,,,0.01,Wunderground v.1.15,2013-04-19 14:10:00,
2013-04-19 07:16:00,47.0,46.2,30.31,South,169,3.0,6.0,97,0.00,,,0.01,Wunderground v.1.15,2013-04-19 14:16:00,
2013-04-19 07:22:00,47.0,46.2,30.31,South,184,4.0,5.0,97,0.00,,,0.01,Wunderground v.1.15,2013-04-19 14:22:00,
2013-04-19 07:27:00,47.0,46.2,30.31,South,189,4.0,5.0,97,0.00,,,0.02,Wunderground v.1.15,2013-04-19 14:27:00,
2013-04-19 07:33:00,47.0,46.2,30.31,South,178,4.0,5.0,97,0.00,,,0.02,Wunderground v.1.15,2013-04-19 14:33:00,
2013-04-19 07:38:00,47.0,46.2,30.31,South,186,5.0,7.0,97,0.00,,,0.02,Wunderground v.1.15,2013-04-19 14:38:00,
2013-04-19 07:44:00,47.0,46.2,30.32,South,186,6.0,7.0,97,0.00,,,0.02,Wunderground v.1.15,2013-04-19 14:44:00,
2013-04-19 07:50:00,47.0,46.2,30.32,SSW,197,6.0,6.0,97,0.00,,,0.03,Wunderground v.1.15,2013-04-19 14:50:00,
2013-04-19 07:55:00,47.0,46.2,30.31,South,188,5.0,9.0,97,0.00,,,0.03,Wunderground v.1.15,2013-04-19 14:55:00,
2013-04-19 08:00:00,47.0,46.2,30.31,South,171,5.0,5.0,97,0.06,,,0.04,Wunderground v.1.15,2013-04-19 15:00:00,
2013-04-19 08:06:00,47.1,46.3,30.31,South,190,6.0,11.0,97,0.06,,,0.04,Wunderground v.1.15,2013-04-19 15:06:00,
2013-04-19 08:12:00,47.1,46.3,30.30,SSE,165,6.0,7.0,97,0.04,,,0.04,Wunderground v.1.15,2013-04-19 15:12:00,
2013-04-19 08:17:00,47.2,46.4,30.30,SSW,194,6.0,9.0,97,0.00,,,0.04,Wunderground v.1.15,2013-04-19 15:17:00,
2013-04-19 08:23:00,47.3,46.5,30.31,SSW,194,6.0,6.0,97,0.00,,,0.04,Wunderground v.1.15,2013-04-19 15:23:00,
2013-04-19 08:28:00,47.3,46.5,30.30,South,182,7.0,9.0,97,0.00,,,0.05,Wunderground v.1.15,2013-04-19 15:28:00,
2013-04-19 08:34:00,47.3,46.5,30.30,SSW,200,8.0,9.0,97,0.00,,,0.05,Wunderground v.1.15,2013-04-19 15:34:00,
2013-04-19 08:39:00,47.2,46.4,30.31,SSW,194,8.0,9.0,97,0.00,,,0.05,Wunderground v.1.15,2013-04-19 15:39:00,
2013-04-19 08:44:00,47.2,46.4,30.31,South,190,7.0,8.0,97,0.00,,,0.05,Wunderground v.1.15,2013-04-19 15:44:00,
2013-04-19 08:49:00,47.2,46.4,30.31,SSW,196,7.0,10.0,97,0.00,,,0.05,Wunderground v.1.15,2013-04-19 15:49:00,
2013-04-19 08:55:00,47.2,46.4,30.31,SSW,203,7.0,10.0,97,0.00,,,0.05,Wunderground v.1.15,2013-04-19 15:55:00,
2013-04-19 09:01:00,47.3,46.5,30.31,SSW,204,7.0,9.0,97,0.00,,,0.05,Wunderground v.1.15,2013-04-19 16:01:00,
2013-04-19 09:07:00,47.3,46.5,30.31,SSW,197,8.0,9.0,97,0.00,,,0.05,Wunderground v.1.15,2013-04-19 16:07:00,
2013-04-19 09:13:00,47.3,46.5,30.31,SSW,196,8.0,12.0,97,0.00,,,0.05,Wunderground v.1.15,2013-04-19 16:13:00,
2013-04-19 09:19:00,47.2,46.4,30.31,SSW,200,8.0,12.0,97,0.00,,,0.05,Wunderground v.1.15,2013-04-19 16:19:00,
2013-04-19 09:24:00,47.3,46.5,30.31,SSW,196,8.0,8.0,97,0.00,,,0.05,Wunderground v.1.15,2013-04-19 16:24:00,
2013-04-19 09:30:00,47.3,46.5,30.31,SSW,192,7.0,7.0,97,0.00,,,0.05,Wunderground v.1.15,2013-04-19 16:30:00,
2013-04-19 09:36:00,47.3,46.5,30.31,South,175,8.0,8.0,97,0.00,,,0.05,Wunderground v.1.15,2013-04-19 16:36:00,
2013-04-19 09:41:00,47.3,46.5,30.31,SSW,192,8.0,9.0,97,0.00,,,0.05,Wunderground v.1.15,2013-04-19 16:41:00,
2013-04-19 09:46:00,47.4,46.6,30.31,SSW,192,8.0,10.0,97,0.00,,,0.05,Wunderground v.1.15,2013-04-19 16:46:00,
2013-04-19 09:51:00,47.4,46.6,30.31,South,190,9.0,14.0,97,0.00,,,0.05,Wunderground v.1.15,2013-04-19 16:51:00,
2013-04-19 09:57:00,47.5,47.0,30.31,SSW,200,10.0,16.0,98,0.00,,,0.05,Wunderground v.1.15,2013-04-19 16:57:00,
2013-04-19 10:03:00,47.5,47.0,30.31,SSW,210,11.0,13.0,98,0.00,,,0.05,Wunderground v.1.15,2013-04-19 17:03:00,
2013-04-19 10:09:00,47.5,47.0,30.31,SSW,194,11.0,15.0,98,0.00,,,0.05,Wunderground v.1.15,2013-04-19 17:09:00,
2013-04-19 10:14:00,47.7,47.2,30.31,SSW,198,11.0,13.0,98,0.00,,,0.05,Wunderground v.1.15,2013-04-19 17:14:00,
2013-04-19 10:20:00,47.8,47.3,30.31,South,187,9.0,11.0,98,0.00,,,0.05,Wunderground v.1.15,2013-04-19 17:20:00,
2013-04-19 10:26:00,47.7,47.2,30.31,SSW,200,10.0,17.0,98,0.00,,,0.05,Wunderground v.1.15,2013-04-19 17:26:00,
2013-04-19 10:31:00,47.7,47.2,30.31,South,188,10.0,10.0,98,0.00,,,0.05,Wunderground v.1.15,2013-04-19 17:31:00,
2013-04-19 10:37:00,47.8,47.3,30.31,SSW,198,9.0,13.0,98,0.00,,,0.05,Wunderground v.1.15,2013-04-19 17:37:00,
2013-04-19 10:43:00,48.1,47.6,30.32,South,182,10.0,15.0,98,0.00,,,0.05,Wunderground v.1.15,2013-04-19 17:43:00,
2013-04-19 10:48:00,48.1,47.6,30.32,South,190,12.0,15.0,98,0.00,,,0.05,Wunderground v.1.15,2013-04-19 17:48:00,
2013-04-19 10:53:00,48.1,47.6,30.32,SSW,198,11.0,12.0,98,0.00,,,0.05,Wunderground v.1.15,2013-04-19 17:53:00,
2013-04-19 10:59:00,48.0,47.5,30.32,SSW,201,9.0,14.0,98,0.00,,,0.05,Wunderground v.1.15,2013-04-19 17:59:00,
2013-04-19 11:04:00,48.0,47.5,30.32,SSW,206,10.0,11.0,98,0.00,,,0.05,Wunderground v.1.15,2013-04-19 18:04:00,
2013-04-19 11:09:00,48.3,47.8,30.32,SSW,208,9.0,11.0,98,0.00,,,0.05,Wunderground v.1.15,2013-04-19 18:09:00,
2013-04-19 11:15:00,48.6,48.1,30.32,SSW,199,8.0,10.0,98,0.00,,,0.05,Wunderground v.1.15,2013-04-19 18:15:00,
2013-04-19 11:21:00,48.1,47.6,30.32,SSW,201,9.0,10.0,98,0.00,,,0.05,Wunderground v.1.15,2013-04-19 18:21:00,
2013-04-19 11:26:00,48.3,47.8,30.33,SW,223,9.0,12.0,98,0.00,,,0.05,Wunderground v.1.15,2013-04-19 18:26:00,
2013-04-19 11:32:00,48.6,48.1,30.33,SSW,204,8.0,10.0,98,0.00,,,0.05,Wunderground v.1.15,2013-04-19 18:32:00,
2013-04-19 11:38:00,48.8,48.3,30.33,SSW,208,8.0,10.0,98,0.00,,,0.05,Wunderground v.1.15,2013-04-19 18:38:00,
2013-04-19 11:43:00,48.8,48.3,30.33,SSW,211,9.0,12.0,98,0.00,,,0.05,Wunderground v.1.15,2013-04-19 18:43:00,
2013-04-19 11:49:00,48.5,48.0,30.33,SW,217,9.0,14.0,98,0.00,,,0.05,Wunderground v.1.15,2013-04-19 18:49:00,
2013-04-19 11:55:00,48.8,48.3,30.34,SW,222,8.0,10.0,98,0.00,,,0.05,Wunderground v.1.15,2013-04-19 18:55:00,
2013-04-19 12:01:00,48.7,48.2,30.34,SSW,202,8.0,8.0,98,0.00,,,0.05,Wunderground v.1.15,2013-04-19 19:01:00,
2013-04-19 12:07:00,48.5,48.0,30.34,South,191,9.0,13.0,98,0.00,,,0.05,Wunderground v.1.15,2013-04-19 19:07:00,
2013-04-19 12:13:00,48.5,48.0,30.34,SW,233,10.0,13.0,98,0.00,,,0.05,Wunderground v.1.15,2013-04-19 19:13:00,
2013-04-19 12:19:00,48.5,48.0,30.34,SSW,212,9.0,13.0,98,0.00,,,0.05,Wunderground v.1.15,2013-04-19 19:19:00,
2013-04-19 12:25:00,48.4,47.9,30.34,SW,215,9.0,10.0,98,0.00,,,0.05,Wunderground v.1.15,2013-04-19 19:25:00,
2013-04-19 12:30:00,48.4,47.9,30.34,SSW,211,8.0,10.0,98,0.00,,,0.05,Wunderground v.1.15,2013-04-19 19:30:00,
2013-04-19 12:36:00,48.4,47.9,30.34,SW,224,8.0,11.0,98,0.00,,,0.05,Wunderground v.1.15,2013-04-19 19:36:00,
2013-04-19 12:41:00,49.0,48.7,30.35,SW,226,9.0,10.0,99,0.00,,,0.06,Wunderground v.1.15,2013-04-19 19:41:00,
2013-04-19 12:47:00,49.2,48.9,30.35,SW,222,9.0,10.0,99,0.00,,,0.06,Wunderground v.1.15,2013-04-19 19:47:00,
2013-04-19 12:52:00,49.4,48.9,30.35,SW,221,8.0,8.0,98,0.00,,,0.06,Wunderground v.1.15,2013-04-19 19:52:00,
2013-04-19 12:58:00,48.8,48.3,30.35,SSW,205,6.0,8.0,98,0.00,,,0.06,Wunderground v.1.15,2013-04-19 19:58:00,
2013-04-19 13:04:00,48.9,48.6,30.35,SW,218,6.0,9.0,99,0.00,,,0.06,Wunderground v.1.15,2013-04-19 20:04:00,
2013-04-19 13:10:00,49.1,48.8,30.35,SW,224,6.0,8.0,99,0.00,,,0.06,Wunderground v.1.15,2013-04-19 20:10:00,
2013-04-19 13:16:00,49.2,48.7,30.35,WSW,245,6.0,8.0,98,0.00,,,0.06,Wunderground v.1.15,2013-04-19 20:16:00,
2013-04-19 13:22:00,49.4,48.9,30.35,WSW,244,6.0,6.0,98,0.00,,,0.06,Wunderground v.1.15,2013-04-19 20:22:00,
2013-04-19 13:28:00,49.5,49.0,30.35,WSW,239,5.0,8.0,98,0.00,,,0.06,Wunderground v.1.15,2013-04-19 20:28:00,
2013-04-19 13:33:00,49.7,49.4,30.34,SW,234,5.0,7.0,99,0.00,,,0.06,Wunderground v.1.15,2013-04-19 20:33:00,
2013-04-19 13:39:00,49.6,49.1,30.34,SW,234,5.0,7.0,98,0.00,,,0.06,Wunderground v.1.15,2013-04-19 20:39:00,
2013-04-19 13:45:00,49.7,49.4,30.34,WSW,241,5.0,6.0,99,0.00,,,0.06,Wunderground v.1.15,2013-04-19 20:45:00,
2013-04-19 13:51:00,49.6,49.1,30.34,WSW,248,5.0,6.0,98,0.00,,,0.06,Wunderground v.1.15,2013-04-19 20:51:00,
2013-04-19 13:56:00,49.4,48.9,30.34,SW,235,6.0,8.0,98,0.00,,,0.06,Wunderground v.1.15,2013-04-19 20:56:00,
2013-04-19 14:02:00,49.5,49.0,30.34,WSW,244,6.0,7.0,98,0.00,,,0.06,Wunderground v.1.15,2013-04-19 21:02:00,
2013-04-19 14:08:00,49.7,49.2,30.34,SW,225,5.0,7.0,98,0.00,,,0.06,Wunderground v.1.15,2013-04-19 21:08:00,
2013-04-19 14:14:00,49.4,48.9,30.34,SW,223,6.0,7.0,98,0.00,,,0.06,Wunderground v.1.15,2013-04-19 21:14:00,
2013-04-19 14:19:00,49.4,48.9,30.35,SW,224,6.0,7.0,98,0.00,,,0.06,Wunderground v.1.15,2013-04-19 21:19:00,
2013-04-19 14:25:00,49.4,48.9,30.34,WSW,243,5.0,8.0,98,0.00,,,0.06,Wunderground v.1.15,2013-04-19 21:25:00,
2013-04-19 14:31:00,49.4,48.9,30.34,West,274,5.0,5.0,98,0.00,,,0.06,Wunderground v.1.15,2013-04-19 21:31:00,
2013-04-19 14:36:00,49.4,48.9,30.34,West,275,4.0,6.0,98,0.00,,,0.06,Wunderground v.1.15,2013-04-19 21:36:00,
2013-04-19 14:42:00,49.4,48.9,30.34,West,274,4.0,4.0,98,0.00,,,0.06,Wunderground v.1.15,2013-04-19 21:42:00,
2013-04-19 14:47:00,49.6,49.1,30.35,West,269,3.0,5.0,98,0.00,,,0.06,Wunderground v.1.15,2013-04-19 21:47:00,
2013-04-19 14:52:00,49.6,49.1,30.35,WSW,247,4.0,6.0,98,0.00,,,0.06,Wunderground v.1.15,2013-04-19 21:52:00,
2013-04-19 14:58:00,49.7,49.2,30.35,NW,305,4.0,6.0,98,0.00,,,0.06,Wunderground v.1.15,2013-04-19 21:58:00,
2013-04-19 15:04:00,49.3,48.8,30.35,NW,307,5.0,5.0,98,0.00,,,0.06,Wunderground v.1.15,2013-04-19 22:04:00,
2013-04-19 15:09:00,49.4,48.9,30.35,WNW,294,5.0,5.0,98,0.00,,,0.06,Wunderground v.1.15,2013-04-19 22:09:00,
2013-04-19 15:14:00,49.6,49.1,30.35,West,267,4.0,5.0,98,0.00,,,0.06,Wunderground v.1.15,2013-04-19 22:14:00,
2013-04-19 15:19:00,49.6,49.1,30.35,West,275,3.0,6.0,98,0.00,,,0.06,Wunderground v.1.15,2013-04-19 22:19:00,
2013-04-19 15:25:00,49.4,48.9,30.35,West,272,4.0,6.0,98,0.00,,,0.06,Wunderground v.1.15,2013-04-19 22:25:00,
2013-04-19 15:30:00,49.4,48.9,30.35,West,265,5.0,5.0,98,0.00,,,0.06,Wunderground v.1.15,2013-04-19 22:30:00,
2013-04-19 15:36:00,49.5,49.0,30.35,West,273,4.0,7.0,98,0.00,,,0.06,Wunderground v.1.15,2013-04-19 22:36:00,
2013-04-19 15:42:00,49.7,49.2,30.34,West,277,4.0,4.0,98,0.00,,,0.06,Wunderground v.1.15,2013-04-19 22:42:00,
2013-04-19 15:48:00,49.5,49.0,30.35,WNW,298,4.0,7.0,98,0.00,,,0.06,Wunderground v.1.15,2013-04-19 22:48:00,
2013-04-19 15:53:00,49.4,48.9,30.35,WNW,298,4.0,4.0,98,0.00,,,0.06,Wunderground v.1.15,2013-04-19 22:53:00,
2013-04-19 15:59:00,49.3,48.8,30.35,WNW,295,4.0,4.0,98,0.00,,,0.06,Wunderground v.1.15,2013-04-19 22:59:00,
2013-04-19 16:04:00,49.4,48.9,30.35,WNW,288,3.0,5.0,98,0.00,,,0.06,Wunderground v.1.15,2013-04-19 23:04:00,
2013-04-19 16:10:00,49.2,48.7,30.35,NW,305,4.0,6.0,98,0.00,,,0.06,Wunderground v.1.15,2013-04-19 23:10:00,
2013-04-19 16:16:00,49.2,48.7,30.35,NW,304,5.0,6.0,98,0.00,,,0.06,Wunderground v.1.15,2013-04-19 23:16:00,
2013-04-19 16:21:00,49.4,48.9,30.35,NW,304,4.0,4.0,98,0.00,,,0.06,Wunderground v.1.15,2013-04-19 23:21:00,
2013-04-19 16:27:00,49.5,49.0,30.35,NW,309,4.0,4.0,98,0.00,,,0.06,Wunderground v.1.15,2013-04-19 23:27:00,
2013-04-19 16:32:00,49.4,48.9,30.35,NW,307,3.0,4.0,98,0.00,,,0.06,Wunderground v.1.15,2013-04-19 23:32:00,
2013-04-19 16:37:00,49.5,49.0,30.34,NW,307,2.0,4.0,98,0.00,,,0.06,Wunderground v.1.15,2013-04-19 23:37:00,
2013-04-19 16:43:00,49.5,49.0,30.34,NW,307,2.0,4.0,98,0.00,,,0.06,Wunderground v.1.15,2013-04-19 23:43:00,
2013-04-19 16:49:00,49.2,48.7,30.34,NW,307,2.0,5.0,98,0.00,,,0.06,Wunderground v.1.15,2013-04-19 23:49:00,
2013-04-19 16:55:00,49.1,48.6,30.34,NW,307,3.0,4.0,98,0.00,,,0.06,Wunderground v.1.15,2013-04-19 23:55:00,
2013-04-19 17:00:00,49.0,48.5,30.34,NW,307,3.0,3.0,98,0.00,,,0.06,Wunderground v.1.15,2013-04-20 00:00:00,
2013-04-19 17:05:00,49.0,48.5,30.34,NW,307,3.0,5.0,98,0.00,,,0.06,Wunderground v.1.15,2013-04-20 00:05:00,
2013-04-19 17:11:00,49.0,48.5,30.34,NW,307,3.0,4.0,98,0.00,,,0.06,Wunderground v.1.15,2013-04-20 00:11:00,
2013-04-19 17:16:00,49.0,48.5,30.34,NW,307,3.0,4.0,98,0.00,,,0.06,Wunderground v.1.15,2013-04-20 00:16:00,
2013-04-19 17:22:00,49.0,48.5,30.34,NW,307,3.0,4.0,98,0.00,,,0.06,Wunderground v.1.15,2013-04-20 00:22:00,
2013-04-19 17:28:00,48.9,48.4,30.34,NW,307,3.0,5.0,98,0.00,,,0.06,Wunderground v.1.15,2013-04-20 00:28:00,
2013-04-19 17:34:00,48.9,48.4,30.34,NW,307,3.0,4.0,98,0.00,,,0.06,Wunderground v.1.15,2013-04-20 00:34:00,
2013-04-19 17:39:00,48.9,48.4,30.34,NW,307,3.0,4.0,98,0.00,,,0.06,Wunderground v.1.15,2013-04-20 00:39:00,
2013-04-19 17:45:00,48.7,48.2,30.34,NW,307,3.0,5.0,98,0.00,,,0.06,Wunderground v.1.15,2013-04-20 00:45:00,
2013-04-19 17:51:00,48.6,48.1,30.34,NW,307,3.0,4.0,98,0.00,,,0.06,Wunderground v.1.15,2013-04-20 00:51:00,
2013-04-19 17:56:00,48.5,48.0,30.34,NW,307,4.0,6.0,98,0.00,,,0.06,Wunderground v.1.15,2013-04-20 00:56:00,
2013-04-19 18:02:00,48.4,47.9,30.34,NW,307,4.0,5.0,98,0.00,,,0.06,Wunderground v.1.15,2013-04-20 01:02:00,
2013-04-19 18:07:00,48.5,48.0,30.34,NW,307,4.0,5.0,98,0.00,,,0.06,Wunderground v.1.15,2013-04-20 01:07:00,
2013-04-19 18:13:00,48.5,48.0,30.34,NW,307,4.0,5.0,98,0.00,,,0.06,Wunderground v.1.15,2013-04-20 01:13:00,
2013-04-19 18:19:00,48.3,47.8,30.34,NW,307,4.0,5.0,98,0.00,,,0.06,Wunderground v.1.15,2013-04-20 01:19:00,
2013-04-19 18:24:00,48.3,47.8,30.34,NW,307,3.0,4.0,98,0.00,,,0.06,Wunderground v.1.15,2013-04-20 01:24:00,
2013-04-19 18:30:00,48.3,47.8,30.34,NW,307,4.0,4.0,98,0.00,,,0.06,Wunderground v.1.15,2013-04-20 01:30:00,
2013-04-19 18:36:00,48.2,47.7,30.33,NW,307,4.0,4.0,98,0.00,,,0.06,Wunderground v.1.15,2013-04-20 01:36:00,
2013-04-19 18:42:00,48.2,47.7,30.33,NW,307,3.0,4.0,98,0.00,,,0.06,Wunderground v.1.15,2013-04-20 01:42:00,
2013-04-19 18:48:00,48.3,48.0,30.33,NW,307,2.0,4.0,99,0.00,,,0.06,Wunderground v.1.15,2013-04-20 01:48:00,
2013-04-19 18:54:00,48.4,48.1,30.33,NW,307,2.0,4.0,99,0.00,,,0.06,Wunderground v.1.15,2013-04-20 01:54:00,
2013-04-19 19:00:00,48.3,48.0,30.33,NW,307,2.0,4.0,99,0.00,,,0.06,Wunderground v.1.15,2013-04-20 02:00:00,
2013-04-19 19:06:00,48.2,47.7,30.33,NW,307,2.0,4.0,98,0.00,,,0.06,Wunderground v.1.15,2013-04-20 02:06:00,
2013-04-19 19:12:00,48.2,47.7,30.33,NW,307,2.0,4.0,98,0.00,,,0.06,Wunderground v.1.15,2013-04-20 02:12:00,
2013-04-19 19:18:00,48.2,47.7,30.33,NW,307,2.0,4.0,98,0.00,,,0.06,Wunderground v.1.15,2013-04-20 02:18:00,
2013-04-19 19:23:00,48.1,47.6,30.33,NW,307,2.0,4.0,98,0.00,,,0.06,Wunderground v.1.15,2013-04-20 02:23:00,
2013-04-19 19:29:00,48.1,47.6,30.33,NW,307,2.0,4.0,98,0.00,,,0.06,Wunderground v.1.15,2013-04-20 02:29:00,
2013-04-19 19:34:00,48.1,47.6,30.33,NW,307,1.0,4.0,98,0.00,,,0.06,Wunderground v.1.15,2013-04-20 02:34:00,
2013-04-19 19:40:00,48.0,47.5,30.33,NW,307,1.0,4.0,98,0.00,,,0.06,Wunderground v.1.15,2013-04-20 02:40:00,
2013-04-19 19:46:00,48.1,47.6,30.33,NW,307,1.0,4.0,98,0.00,,,0.06,Wunderground v.1.15,2013-04-20 02:46:00,
2013-04-19 19:51:00,48.0,47.7,30.33,NW,307,1.0,4.0,99,0.00,,,0.06,Wunderground v.1.15,2013-04-20 02:51:00,
2013-04-19 19:57:00,48.0,47.7,30.33,NW,307,1.0,4.0,99,0.00,,,0.06,Wunderground v.1.15,2013-04-20 02:57:00,
2013-04-19 20:02:00,48.1,47.8,30.33,NW,307,1.0,4.0,99,0.00,,,0.06,Wunderground v.1.15,2013-04-20 03:02:00,
2013-04-19 20:08:00,48.1,47.8,30.33,NW,307,1.0,4.0,99,0.00,,,0.06,Wunderground v.1.15,2013-04-20 03:08:00,
2013-04-19 20:13:00,48.1,47.6,30.33,NW,307,2.0,4.0,98,0.00,,,0.06,Wunderground v.1.15,2013-04-20 03:13:00,
2013-04-19 20:19:00,48.0,47.7,30.33,NW,307,2.0,4.0,99,0.00,,,0.06,Wunderground v.1.15,2013-04-20 03:19:00,
2013-04-19 20:24:00,47.9,47.6,30.33,NW,307,2.0,4.0,99,0.00,,,0.06,Wunderground v.1.15,2013-04-20 03:24:00,
2013-04-19 20:30:00,47.9,47.6,30.33,NW,307,1.0,4.0,99,0.00,,,0.06,Wunderground v.1.15,2013-04-20 03:30:00,
2013-04-19 20:36:00,47.9,47.6,30.33,NW,307,1.0,4.0,99,0.00,,,0.06,Wunderground v.1.15,2013-04-20 03:36:00,
2013-04-19 20:42:00,47.9,47.6,30.33,NW,307,1.0,4.0,99,0.00,,,0.06,Wunderground v.1.15,2013-04-20 03:42:00,
2013-04-19 20:48:00,47.9,47.6,30.33,NW,307,1.0,4.0,99,0.00,,,0.06,Wunderground v.1.15,2013-04-20 03:48:00,
2013-04-19 20:53:00,47.9,47.6,30.33,NW,307,1.0,4.0,99,0.00,,,0.06,Wunderground v.1.15,2013-04-20 03:53:00,
2013-04-19 20:58:00,47.9,47.6,30.33,NW,307,1.0,4.0,99,0.00,,,0.06,Wunderground v.1.15,2013-04-20 03:58:00,
2013-04-19 21:01:00,47.9,47.6,30.34,NW,307,1.0,4.0,99,0.00,,,0.06,Wunderground v.1.15,2013-04-20 04:01:00,
2013-04-19 21:03:00,47.8,47.5,30.34,NW,307,1.0,4.0,99,0.00,,,0.06,Wunderground v.1.15,2013-04-20 04:03:00,
2013-04-19 21:04:00,47.9,47.6,30.34,NW,307,1.0,4.0,99,0.00,,,0.06,Wunderground v.1.15,2013-04-20 04:04:00,
2013-04-19 21:09:00,47.8,47.5,30.34,NW,307,1.0,4.0,99,0.00,,,0.06,Wunderground v.1.15,2013-04-20 04:09:00,
2013-04-19 21:15:00,47.7,47.4,30.34,NW,307,2.0,4.0,99,0.00,,,0.06,Wunderground v.1.15,2013-04-20 04:15:00,
2013-04-19 21:18:00,47.8,47.5,30.34,NW,307,1.0,4.0,99,0.00,,,0.06,Wunderground v.1.15,2013-04-20 04:18:00,
2013-04-19 21:23:00,47.8,47.5,30.34,NW,307,1.0,4.0,99,0.00,,,0.06,Wunderground v.1.15,2013-04-20 04:23:00,
2013-04-19 21:29:00,47.9,47.6,30.34,NW,307,1.0,4.0,99,0.00,,,0.06,Wunderground v.1.15,2013-04-20 04:29:00,
2013-04-19 21:34:00,47.9,47.6,30.34,NW,307,1.0,4.0,99,0.00,,,0.06,Wunderground v.1.15,2013-04-20 04:34:00,
2013-04-19 21:39:00,47.9,47.6,30.34,NW,307,1.0,4.0,99,0.00,,,0.06,Wunderground v.1.15,2013-04-20 04:39:00,
2013-04-19 21:44:00,47.9,47.6,30.34,NW,307,2.0,4.0,99,0.00,,,0.06,Wunderground v.1.15,2013-04-20 04:44:00,
2013-04-19 21:50:00,47.8,47.5,30.34,NW,307,3.0,4.0,99,0.00,,,0.06,Wunderground v.1.15,2013-04-20 04:50:00,
2013-04-19 21:55:00,47.8,47.5,30.34,NW,317,4.0,4.0,99,0.00,,,0.06,Wunderground v.1.15,2013-04-20 04:55:00,
2013-04-19 22:01:00,47.7,47.4,30.34,NW,317,4.0,5.0,99,0.00,,,0.06,Wunderground v.1.15,2013-04-20 05:01:00,
2013-04-19 22:07:00,47.6,47.3,30.34,NW,319,4.0,5.0,99,0.00,,,0.06,Wunderground v.1.15,2013-04-20 05:07:00,
2013-04-19 22:12:00,47.6,47.3,30.35,NW,323,4.0,5.0,99,0.00,,,0.06,Wunderground v.1.15,2013-04-20 05:12:00,
2013-04-19 22:18:00,47.6,47.3,30.35,NNW,333,4.0,6.0,99,0.00,,,0.06,Wunderground v.1.15,2013-04-20 05:18:00,
2013-04-19 22:23:00,47.5,47.2,30.34,NNW,337,4.0,5.0,99,0.00,,,0.06,Wunderground v.1.15,2013-04-20 05:23:00,
2013-04-19 22:29:00,47.6,47.3,30.34,NNW,340,4.0,6.0,99,0.00,,,0.06,Wunderground v.1.15,2013-04-20 05:29:00,
2013-04-19 22:35:00,47.6,47.3,30.34,NNW,343,5.0,9.0,99,0.00,,,0.06,Wunderground v.1.15,2013-04-20 05:35:00,
2013-04-19 22:40:00,47.5,47.2,30.34,NNW,339,5.0,7.0,99,0.00,,,0.06,Wunderground v.1.15,2013-04-20 05:40:00,
2013-04-19 22:46:00,47.6,47.3,30.34,NNW,338,4.0,7.0,99,0.00,,,0.06,Wunderground v.1.15,2013-04-20 05:46:00,
2013-04-19 22:51:00,47.6,47.3,30.34,NNW,342,5.0,6.0,99,0.00,,,0.06,Wunderground v.1.15,2013-04-20 05:51:00,
2013-04-19 22:57:00,47.5,47.2,30.35,NNW,342,5.0,6.0,99,0.00,,,0.06,Wunderground v.1.15,2013-04-20 05:57:00,
2013-04-19 23:02:00,47.5,47.2,30.35,NNW,346,6.0,9.0,99,0.00,,,0.06,Wunderground v.1.15,2013-04-20 06:02:00,
2013-04-19 23:07:00,47.5,47.2,30.35,NNW,345,6.0,9.0,99,0.00,,,0.06,Wunderground v.1.15,2013-04-20 06:07:00,
2013-04-19 23:13:00,47.4,47.1,30.35,NNW,346,7.0,9.0,99,0.00,,,0.06,Wunderground v.1.15,2013-04-20 06:13:00,
2013-04-19 23:19:00,47.5,47.2,30.34,NNW,344,7.0,9.0,99,0.00,,,0.06,Wunderground v.1.15,2013-04-20 06:19:00,
2013-04-19 23:24:00,47.4,47.1,30.34,North,349,7.0,9.0,99,0.00,,,0.06,Wunderground v.1.15,2013-04-20 06:24:00,
2013-04-19 23:30:00,47.4,47.1,30.34,North,355,7.0,7.0,99,0.00,,,0.06,Wunderground v.1.15,2013-04-20 06:30:00,
2013-04-19 23:35:00,47.4,47.1,30.34,North,350,7.0,9.0,99,0.00,,,0.06,Wunderground v.1.15,2013-04-20 06:35:00,
2013-04-19 23:41:00,47.4,47.1,30.34,NNW,346,6.0,7.0,99,0.00,,,0.06,Wunderground v.1.15,2013-04-20 06:41:00,
2013-04-19 23:47:00,47.3,47.0,30.34,North,349,6.0,8.0,99,0.00,,,0.06,Wunderground v.1.15,2013-04-20 06:47:00,
2013-04-19 23:52:00,47.3,47.0,30.34,North,350,6.0,7.0,99,0.00,,,0.06,Wunderground v.1.15,2013-04-20 06:52:00,
2013-04-19 23:57:00,47.2,46.9,30.34,North,350,6.0,7.0,99,0.00,,,0.06,Wunderground v.1.15,2013-04-20 06:57:00,